RYR95LW EDDK-EGCC

Flight info

Callsign RYR95LW
Flight time 1h 12m
Altitude 34000
Route NVO2R NVO Y868 SOGRI L608 DENUT L610 LAM UN57 WELIN T420 ELVOS
Aircraft B738/M-SDE2E3FGHIRWXY/LB1

Departure

Time 2026-04-25 13:31
Airport Cologne Bonn Airport (EDDK)

Arrival

Time 2026-04-25 14:43
Airport Manchester Airport (EGCC)
Time Latitude Longitude Altitude Speed Heading
2026-04-25 12:38 50.87938 7.12303 230 ft 0 kts 175°
2026-04-25 13:17 50.87947 7.12302 229 ft 3 kts 179°
2026-04-25 13:18 50.87967 7.12302 230 ft 3 kts 175°
2026-04-25 13:18 50.87987 7.12300 231 ft 3 kts 186°
2026-04-25 13:18 50.88006 7.12306 231 ft 3 kts 201°
2026-04-25 13:18 50.88024 7.12320 230 ft 3 kts 209°
2026-04-25 13:19 50.88039 7.12332 231 ft 3 kts 167°
2026-04-25 13:19 50.88042 7.12333 231 ft 0 kts 126°
2026-04-25 13:23 50.88039 7.12341 231 ft 3 kts 120°
2026-04-25 13:23 50.88031 7.12408 229 ft 10 kts 82°
2026-04-25 13:24 50.88006 7.12486 229 ft 8 kts 134°
2026-04-25 13:24 50.87965 7.12546 229 ft 8 kts 137°
2026-04-25 13:24 50.87922 7.12600 229 ft 8 kts 154°
2026-04-25 13:24 50.87859 7.12613 229 ft 11 kts 171°
2026-04-25 13:25 50.87763 7.12705 229 ft 22 kts 135°
2026-04-25 13:25 50.87624 7.12902 229 ft 31 kts 136°
2026-04-25 13:25 50.87449 7.13161 231 ft 36 kts 136°
2026-04-25 13:25 50.87259 7.13437 236 ft 38 kts 137°
2026-04-25 13:26 50.87063 7.13718 240 ft 38 kts 138°
2026-04-25 13:26 50.86875 7.13992 243 ft 24 kts 139°
2026-04-25 13:26 50.86747 7.14134 251 ft 23 kts 161°
2026-04-25 13:26 50.86629 7.14290 257 ft 22 kts 136°
2026-04-25 13:27 50.86518 7.14450 257 ft 21 kts 137°
2026-04-25 13:27 50.86410 7.14606 263 ft 21 kts 137°
2026-04-25 13:27 50.86292 7.14776 267 ft 26 kts 137°
2026-04-25 13:27 50.86141 7.14993 272 ft 33 kts 137°
2026-04-25 13:28 50.85962 7.15258 279 ft 38 kts 137°
2026-04-25 13:28 50.85831 7.15450 286 ft 39 kts 137°
2026-04-25 13:28 50.85557 7.15838 298 ft 41 kts 137°
2026-04-25 13:28 50.85372 7.16114 304 ft 15 kts 131°
2026-04-25 13:29 50.85337 7.16245 306 ft 11 kts 95°
2026-04-25 13:29 50.85346 7.16362 309 ft 11 kts 71°
2026-04-25 13:29 50.85388 7.16456 311 ft 12 kts 41°
2026-04-25 13:30 50.85635 7.16404 309 ft 19 kts 317°
2026-04-25 13:30 50.85886 7.16039 303 ft 92 kts 317°
2026-04-25 13:30 50.86552 7.15051 297 ft 166 kts 316°
2026-04-25 13:31 50.88665 7.12447 1919 ft 203 kts 326°
2026-04-25 13:31 50.89768 7.11190 3285 ft 180 kts 323°
2026-04-25 13:31 50.90776 7.10167 4462 ft 173 kts 327°
2026-04-25 13:31 50.91763 7.08879 4844 ft 194 kts 314°
2026-04-25 13:32 50.92674 7.07223 5124 ft 211 kts 309°
2026-04-25 13:32 50.93442 7.05113 5143 ft 234 kts 293°
2026-04-25 13:32 50.93815 7.02578 4933 ft 239 kts 274°
2026-04-25 13:32 50.93688 6.99981 4945 ft 235 kts 261°
2026-04-25 13:33 50.93194 6.97515 4976 ft 237 kts 248°
2026-04-25 13:33 50.92378 6.95223 4990 ft 241 kts 241°
2026-04-25 13:33 50.91454 6.92816 5007 ft 261 kts 241°
2026-04-25 13:33 50.90520 6.90366 4974 ft 264 kts 242°
2026-04-25 13:34 50.89569 6.87870 5003 ft 265 kts 242°
2026-04-25 13:34 50.88497 6.85490 4997 ft 269 kts 227°
2026-04-25 13:34 50.87054 6.83588 5001 ft 269 kts 221°
2026-04-25 13:34 50.85668 6.81609 5008 ft 267 kts 231°
2026-04-25 13:35 50.84577 6.79240 4993 ft 266 kts 243°
2026-04-25 13:35 50.83834 6.76631 5342 ft 255 kts 253°
2026-04-25 13:35 50.83346 6.73901 5893 ft 261 kts 259°
2026-04-25 13:35 50.82992 6.71051 6460 ft 266 kts 262°
2026-04-25 13:36 50.82703 6.68160 6963 ft 267 kts 264°
2026-04-25 13:36 50.82438 6.65253 7465 ft 266 kts 264°
2026-04-25 13:36 50.82241 6.62350 7977 ft 265 kts 270°
2026-04-25 13:36 50.82245 6.59438 8520 ft 266 kts 273°
2026-04-25 13:37 50.82302 6.56479 9067 ft 273 kts 274°
2026-04-25 13:37 50.82362 6.53459 9603 ft 275 kts 274°
2026-04-25 13:37 50.82416 6.50437 10146 ft 276 kts 273°
2026-04-25 13:37 50.82464 6.47397 10651 ft 276 kts 273°
2026-04-25 13:38 50.82507 6.44314 10998 ft 290 kts 273°
2026-04-25 13:38 50.82550 6.41039 11188 ft 313 kts 273°
2026-04-25 13:38 50.82594 6.37479 11429 ft 333 kts 272°
2026-04-25 13:38 50.82633 6.33718 12035 ft 341 kts 272°
2026-04-25 13:39 50.82669 6.29998 12754 ft 344 kts 272°
2026-04-25 13:39 50.82704 6.26150 13528 ft 347 kts 272°
2026-04-25 13:39 50.82737 6.22370 14220 ft 351 kts 272°
2026-04-25 13:39 50.82771 6.18472 14875 ft 355 kts 272°
2026-04-25 13:40 50.82803 6.14665 15523 ft 357 kts 272°
2026-04-25 13:40 50.82836 6.10622 16198 ft 361 kts 272°
2026-04-25 13:40 50.82867 6.06634 16819 ft 365 kts 272°
2026-04-25 13:40 50.82896 6.02603 17431 ft 369 kts 272°
2026-04-25 13:41 50.82892 5.98523 18065 ft 373 kts 270°
2026-04-25 13:41 50.82846 5.94406 18670 ft 376 kts 270°
2026-04-25 13:41 50.82786 5.90253 19214 ft 379 kts 270°
2026-04-25 13:41 50.82695 5.86087 19789 ft 381 kts 270°
2026-04-25 13:42 50.82592 5.81896 20357 ft 383 kts 270°
2026-04-25 13:42 50.82488 5.77674 20917 ft 385 kts 270°
2026-04-25 13:42 50.82387 5.73420 21462 ft 388 kts 270°
2026-04-25 13:42 50.82287 5.69150 21980 ft 390 kts 270°
2026-04-25 13:43 50.82185 5.64842 22513 ft 393 kts 270°
2026-04-25 13:43 50.82081 5.60517 23024 ft 395 kts 270°
2026-04-25 13:43 50.81975 5.56163 23564 ft 397 kts 271°
2026-04-25 13:43 50.81867 5.51788 24022 ft 399 kts 271°
2026-04-25 13:44 50.81758 5.47400 24445 ft 401 kts 271°
2026-04-25 13:44 50.81646 5.42984 24853 ft 403 kts 270°
2026-04-25 13:44 50.81532 5.38550 25258 ft 405 kts 270°
2026-04-25 13:44 50.81415 5.34093 25657 ft 407 kts 270°
2026-04-25 13:45 50.81296 5.29604 26051 ft 409 kts 270°
2026-04-25 13:45 50.81175 5.25104 26432 ft 411 kts 270°
2026-04-25 13:45 50.81052 5.20580 26804 ft 413 kts 270°
2026-04-25 13:45 50.80928 5.16036 27174 ft 415 kts 270°
2026-04-25 13:46 50.80800 5.11466 27546 ft 416 kts 270°
2026-04-25 13:46 50.80732 5.06889 27916 ft 417 kts 274°
2026-04-25 13:46 50.81041 5.02329 28255 ft 417 kts 282°
2026-04-25 13:46 50.81764 4.97945 28578 ft 418 kts 288°
2026-04-25 13:47 50.82631 4.93545 28904 ft 420 kts 288°
2026-04-25 13:47 50.83504 4.89121 29235 ft 422 kts 288°
2026-04-25 13:47 50.84372 4.84666 29542 ft 424 kts 288°
2026-04-25 13:47 50.85231 4.80196 29848 ft 426 kts 287°
2026-04-25 13:48 50.86084 4.75707 30207 ft 426 kts 287°
2026-04-25 13:48 50.86931 4.71223 30602 ft 424 kts 287°
2026-04-25 13:48 50.87772 4.66756 31021 ft 422 kts 287°
2026-04-25 13:48 50.88632 4.62308 31325 ft 422 kts 287°
2026-04-25 13:49 50.89479 4.57854 31607 ft 423 kts 286°
2026-04-25 13:49 50.90418 4.53445 31928 ft 423 kts 293°
2026-04-25 13:49 50.91798 4.49333 32291 ft 422 kts 301°
2026-04-25 13:49 50.93341 4.45398 32651 ft 421 kts 301°
2026-04-25 13:50 50.94895 4.41453 32943 ft 421 kts 301°
2026-04-25 13:50 50.96437 4.37513 33238 ft 421 kts 300°
2026-04-25 13:50 50.97950 4.33616 33561 ft 420 kts 300°
2026-04-25 13:50 50.99488 4.29623 33893 ft 419 kts 300°
2026-04-25 13:51 51.00491 4.27009 34092 ft 418 kts 300°
2026-04-25 13:51 51.02490 4.21775 34426 ft 418 kts 300°
2026-04-25 13:51 51.03995 4.17825 34665 ft 418 kts 300°
2026-04-25 13:51 51.05499 4.13871 34908 ft 418 kts 300°
2026-04-25 13:52 51.07000 4.09917 35144 ft 417 kts 300°
2026-04-25 13:52 51.08500 4.05963 35355 ft 418 kts 300°
2026-04-25 13:52 51.10000 4.02001 35538 ft 418 kts 300°
2026-04-25 13:52 51.10993 3.99373 35689 ft 418 kts 300°
2026-04-25 13:53 51.12491 3.95407 35922 ft 418 kts 300°
2026-04-25 13:53 51.13984 3.91450 36148 ft 417 kts 300°
2026-04-25 13:53 51.15482 3.87470 36181 ft 421 kts 300°
2026-04-25 13:54 51.18487 3.79472 36187 ft 419 kts 299°
2026-04-25 13:54 51.21480 3.71527 36192 ft 418 kts 299°
2026-04-25 13:55 51.23980 3.63214 36201 ft 415 kts 285°
2026-04-25 13:55 51.25152 3.54203 36202 ft 415 kts 281°
2026-04-25 13:56 51.26314 3.45158 36201 ft 416 kts 281°
2026-04-25 13:56 51.27500 3.36105 36204 ft 417 kts 281°
2026-04-25 13:57 51.28682 3.27020 36214 ft 418 kts 281°
2026-04-25 13:57 51.29858 3.17916 36227 ft 419 kts 281°
2026-04-25 13:58 51.31031 3.08777 36230 ft 420 kts 281°
2026-04-25 13:58 51.32198 2.99626 36231 ft 421 kts 281°
2026-04-25 13:59 51.33360 2.90454 36206 ft 421 kts 281°
2026-04-25 13:59 51.34510 2.81323 36211 ft 421 kts 280°
2026-04-25 14:00 51.35473 2.73622 36205 ft 422 kts 280°
2026-04-25 14:00 51.36786 2.62925 36208 ft 421 kts 280°
2026-04-25 14:01 51.37905 2.53717 36206 ft 421 kts 280°
2026-04-25 14:01 51.39019 2.44510 36209 ft 421 kts 280°
2026-04-25 14:02 51.40126 2.35308 36206 ft 421 kts 280°
2026-04-25 14:02 51.41225 2.26105 36217 ft 421 kts 280°
2026-04-25 14:03 51.42345 2.16902 36215 ft 421 kts 280°
2026-04-25 14:03 51.43471 2.07691 36218 ft 421 kts 280°
2026-04-25 14:04 51.44587 1.98462 36217 ft 422 kts 279°
2026-04-25 14:04 51.45685 1.89231 36221 ft 422 kts 279°
2026-04-25 14:05 51.46779 1.79966 36214 ft 423 kts 280°
2026-04-25 14:05 51.47838 1.70685 36219 ft 423 kts 278°
2026-04-25 14:06 51.48877 1.61385 36220 ft 424 kts 279°
2026-04-25 14:06 51.49926 1.52128 36219 ft 425 kts 279°
2026-04-25 14:07 51.50978 1.42790 36217 ft 426 kts 279°
2026-04-25 14:07 51.52024 1.33425 36219 ft 426 kts 278°
2026-04-25 14:08 51.53064 1.24043 36217 ft 427 kts 278°
2026-04-25 14:08 51.54097 1.14657 36217 ft 427 kts 278°
2026-04-25 14:09 51.55126 1.05255 36218 ft 427 kts 278°
2026-04-25 14:09 51.56150 0.95848 36219 ft 427 kts 278°
2026-04-25 14:10 51.57160 0.86446 36219 ft 427 kts 278°
2026-04-25 14:10 51.58161 0.77036 36211 ft 427 kts 278°
2026-04-25 14:11 51.59157 0.67627 36210 ft 427 kts 278°
2026-04-25 14:11 51.60191 0.58230 36213 ft 426 kts 280°
2026-04-25 14:12 51.61223 0.48841 36206 ft 426 kts 278°
2026-04-25 14:12 51.62157 0.39435 36211 ft 426 kts 278°
2026-04-25 14:13 51.63129 0.30031 36198 ft 426 kts 278°
2026-04-25 14:13 51.64112 0.20639 36202 ft 426 kts 284°
2026-04-25 14:13 51.65135 0.16169 36218 ft 427 kts 295°
2026-04-25 14:14 51.66617 0.12089 36208 ft 429 kts 304°
2026-04-25 14:14 51.70654 0.04994 36208 ft 431 kts 313°
2026-04-25 14:15 51.74930 -0.01885 36228 ft 432 kts 313°
2026-04-25 14:15 51.79132 -0.08729 36233 ft 432 kts 313°
2026-04-25 14:16 51.83349 -0.15684 36214 ft 433 kts 313°
2026-04-25 14:16 51.85464 -0.19192 35881 ft 438 kts 313°
2026-04-25 14:16 51.87566 -0.22683 35578 ft 427 kts 313°
2026-04-25 14:16 51.89613 -0.26086 35141 ft 417 kts 312°
2026-04-25 14:17 51.91611 -0.29411 34763 ft 406 kts 312°
2026-04-25 14:17 51.93565 -0.32670 34396 ft 401 kts 312°
2026-04-25 14:17 51.95503 -0.35907 33994 ft 399 kts 312°
2026-04-25 14:17 51.97428 -0.39129 33574 ft 396 kts 312°
2026-04-25 14:18 51.99338 -0.42327 33173 ft 393 kts 312°
2026-04-25 14:18 52.01231 -0.45501 32800 ft 390 kts 312°
2026-04-25 14:18 52.03112 -0.48658 32421 ft 387 kts 312°
2026-04-25 14:18 52.04983 -0.51805 32057 ft 385 kts 312°
2026-04-25 14:19 52.06833 -0.54917 31693 ft 382 kts 312°
2026-04-25 14:19 52.08654 -0.57987 31335 ft 380 kts 312°
2026-04-25 14:19 52.10482 -0.61071 30975 ft 378 kts 312°
2026-04-25 14:19 52.12299 -0.64141 30623 ft 376 kts 312°
2026-04-25 14:20 52.14107 -0.67199 30267 ft 374 kts 312°
2026-04-25 14:20 52.14716 -0.68230 30126 ft 373 kts 312°
2026-04-25 14:20 52.17689 -0.73271 29461 ft 369 kts 312°
2026-04-25 14:20 52.19459 -0.76275 29086 ft 366 kts 312°
2026-04-25 14:21 52.21214 -0.79256 28724 ft 363 kts 311°
2026-04-25 14:21 52.22959 -0.82225 28341 ft 361 kts 311°
2026-04-25 14:21 52.24752 -0.85088 27961 ft 361 kts 318°
2026-04-25 14:21 52.26822 -0.87456 27602 ft 368 kts 326°
2026-04-25 14:22 52.29043 -0.89643 27250 ft 379 kts 327°
2026-04-25 14:22 52.31321 -0.91852 26838 ft 381 kts 327°
2026-04-25 14:22 52.33597 -0.94067 26447 ft 379 kts 327°
2026-04-25 14:22 52.35844 -0.96273 26068 ft 376 kts 327°
2026-04-25 14:23 52.38076 -0.98482 25687 ft 374 kts 326°
2026-04-25 14:23 52.40291 -1.00686 25332 ft 372 kts 326°
2026-04-25 14:23 52.42492 -1.02884 24966 ft 370 kts 326°
2026-04-25 14:23 52.44688 -1.05078 24582 ft 368 kts 326°
2026-04-25 14:24 52.46815 -1.07207 24220 ft 366 kts 326°
2026-04-25 14:24 52.49036 -1.09433 23836 ft 365 kts 326°
2026-04-25 14:24 52.51203 -1.11623 23398 ft 365 kts 326°
2026-04-25 14:24 52.53353 -1.13806 23010 ft 362 kts 326°
2026-04-25 14:25 52.54048 -1.14513 22889 ft 362 kts 326°
2026-04-25 14:25 52.57610 -1.18128 22261 ft 357 kts 326°
2026-04-25 14:25 52.59718 -1.20261 21902 ft 354 kts 326°
2026-04-25 14:25 52.60400 -1.20952 21795 ft 354 kts 326°
2026-04-25 14:26 52.63889 -1.24486 21189 ft 349 kts 326°
2026-04-25 14:26 52.65952 -1.26578 20847 ft 347 kts 326°
2026-04-25 14:26 52.67975 -1.28635 20492 ft 345 kts 326°
2026-04-25 14:26 52.70013 -1.30709 20157 ft 343 kts 326°
2026-04-25 14:27 52.72043 -1.32773 19756 ft 343 kts 327°
2026-04-25 14:27 52.74074 -1.34839 19388 ft 343 kts 327°
2026-04-25 14:27 52.76102 -1.36904 18995 ft 343 kts 327°
2026-04-25 14:27 52.78131 -1.38972 18598 ft 343 kts 327°
2026-04-25 14:28 52.80160 -1.41043 18141 ft 343 kts 327°
2026-04-25 14:28 52.82185 -1.43111 17709 ft 342 kts 327°
2026-04-25 14:28 52.84210 -1.45182 17288 ft 341 kts 327°
2026-04-25 14:28 52.86222 -1.47242 16886 ft 339 kts 327°
2026-04-25 14:29 52.88223 -1.49294 16495 ft 338 kts 327°
2026-04-25 14:29 52.90219 -1.51343 16087 ft 336 kts 327°
2026-04-25 14:29 52.92206 -1.53384 15696 ft 335 kts 327°
2026-04-25 14:29 52.94183 -1.55418 15305 ft 334 kts 327°
2026-04-25 14:30 52.96154 -1.57448 14920 ft 333 kts 327°
2026-04-25 14:30 53.00077 -1.61494 14150 ft 331 kts 327°
2026-04-25 14:30 53.02033 -1.63515 13739 ft 331 kts 327°
2026-04-25 14:31 53.03980 -1.65529 13314 ft 330 kts 327°
2026-04-25 14:31 53.05853 -1.67712 12874 ft 327 kts 315°
2026-04-25 14:31 53.07341 -1.70548 12531 ft 324 kts 308°
2026-04-25 14:31 53.08772 -1.73439 12132 ft 320 kts 309°
2026-04-25 14:32 53.10165 -1.76194 11763 ft 311 kts 310°
2026-04-25 14:32 53.11547 -1.78897 11399 ft 302 kts 310°
2026-04-25 14:32 53.12892 -1.81514 11059 ft 294 kts 310°
2026-04-25 14:32 53.14207 -1.84071 10715 ft 287 kts 310°
2026-04-25 14:33 53.15488 -1.86564 10385 ft 280 kts 310°
2026-04-25 14:33 53.16741 -1.89000 10057 ft 274 kts 310°
2026-04-25 14:33 53.17963 -1.91384 9721 ft 268 kts 310°
2026-04-25 14:33 53.19172 -1.93742 9395 ft 266 kts 310°
2026-04-25 14:34 53.20369 -1.96079 9091 ft 266 kts 310°
2026-04-25 14:34 53.21570 -1.98426 8780 ft 266 kts 310°
2026-04-25 14:34 53.22772 -2.00733 8458 ft 260 kts 315°
2026-04-25 14:34 53.24287 -2.02269 8144 ft 256 kts 344°
2026-04-25 14:35 53.26059 -2.02496 7763 ft 255 kts
2026-04-25 14:35 53.27744 -2.01708 7462 ft 255 kts 28°
2026-04-25 14:35 53.29225 -2.00065 7200 ft 257 kts 34°
2026-04-25 14:35 53.30673 -1.98304 6891 ft 257 kts 34°
2026-04-25 14:36 53.32115 -1.96532 6619 ft 256 kts 35°
2026-04-25 14:36 53.33554 -1.94759 6270 ft 257 kts 35°
2026-04-25 14:36 53.34994 -1.92980 5896 ft 257 kts 35°
2026-04-25 14:36 53.36429 -1.91232 5497 ft 254 kts 31°
2026-04-25 14:37 53.38069 -1.90460 5092 ft 250 kts 354°
2026-04-25 14:37 53.39646 -1.91517 4685 ft 248 kts 319°
2026-04-25 14:37 53.40482 -1.92876 4407 ft 247 kts 317°
2026-04-25 14:37 53.42309 -1.95060 3845 ft 241 kts 331°
2026-04-25 14:38 53.43776 -1.96312 3523 ft 229 kts 335°
2026-04-25 14:38 53.45160 -1.97358 3464 ft 207 kts 337°
2026-04-25 14:38 53.46417 -1.98292 3458 ft 192 kts 331°
2026-04-25 14:38 53.47317 -1.99869 3474 ft 189 kts 292°
2026-04-25 14:39 53.47416 -2.02046 3496 ft 193 kts 251°
2026-04-25 14:39 53.46972 -2.03378 3499 ft 196 kts 231°
2026-04-25 14:39 53.46137 -2.05184 3332 ft 201 kts 233°
2026-04-25 14:39 53.45282 -2.07024 3085 ft 198 kts 231°
2026-04-25 14:40 53.44425 -2.08792 2823 ft 192 kts 231°
2026-04-25 14:40 53.43591 -2.10510 2599 ft 188 kts 231°
2026-04-25 14:40 53.42787 -2.12170 2335 ft 178 kts 231°
2026-04-25 14:40 53.42042 -2.13708 2100 ft 167 kts 231°
2026-04-25 14:41 53.41317 -2.15206 1896 ft 162 kts 231°
2026-04-25 14:41 53.40604 -2.16678 1684 ft 160 kts 231°
2026-04-25 14:41 53.39934 -2.18063 1500 ft 147 kts 231°
2026-04-25 14:41 53.39298 -2.19377 1287 ft 143 kts 231°
2026-04-25 14:42 53.38687 -2.20641 1106 ft 144 kts 231°
2026-04-25 14:42 53.38270 -2.21503 990 ft 143 kts 231°
2026-04-25 14:42 53.37433 -2.23237 690 ft 143 kts 232°
2026-04-25 14:42 53.36818 -2.24520 514 ft 139 kts 232°
2026-04-25 14:43 53.36238 -2.25730 338 ft 137 kts 231°
2026-04-25 14:43 53.35691 -2.26873 267 ft 120 kts 233°
2026-04-25 14:43 53.35215 -2.27819 247 ft 89 kts 227°
2026-04-25 14:43 53.34955 -2.28494 234 ft 46 kts 261°
2026-04-25 14:44 53.34956 -2.28718 232 ft 12 kts 306°
2026-04-25 14:44 53.35022 -2.28713 230 ft 9 kts 42°
2026-04-25 14:44 53.35066 -2.28638 232 ft 9 kts 47°
2026-04-25 14:44 53.35106 -2.28558 231 ft 9 kts 50°
2026-04-25 14:45 53.35153 -2.28463 229 ft 11 kts 50°
2026-04-25 14:45 53.35202 -2.28362 232 ft 11 kts 51°
2026-04-25 14:45 53.35249 -2.28265 234 ft 11 kts 49°
2026-04-25 14:45 53.35299 -2.28173 236 ft 10 kts 45°
2026-04-25 14:46 53.35350 -2.28091 240 ft 10 kts 43°
2026-04-25 14:46 53.35403 -2.28005 241 ft 11 kts 44°
2026-04-25 14:46 53.35453 -2.27904 245 ft 11 kts 71°
2026-04-25 14:46 53.35468 -2.27770 248 ft 13 kts 63°
2026-04-25 14:47 53.35545 -2.27608 247 ft 22 kts 51°
2026-04-25 14:47 53.35610 -2.27474 252 ft 23 kts 50°
2026-04-25 14:47 53.35767 -2.27152 251 ft 31 kts 50°
2026-04-25 14:47 53.35876 -2.26889 253 ft 12 kts 51°
2026-04-25 14:48 53.35933 -2.26756 253 ft 16 kts 51°
2026-04-25 14:48 53.36019 -2.26749 247 ft 0 kts
2026-04-25 14:49 53.36036 -2.26729 247 ft 7 kts 26°
2026-04-25 14:49 53.36067 -2.26757 247 ft 5 kts 314°
2026-04-25 14:49 53.36083 -2.26786 247 ft 2 kts 314°
2026-04-25 14:49 53.36088 -2.26793 247 ft 0 kts 314°